Burak Celik

Scout - Trabzonspor
22 Feb 2028
Dienstag
Verarbeitung

Persönlichkeit

Anpassungsfähigkeit (11) Ehrgeiz (10) Kontroverse (8) Loyalität (3) Druck (17) Professionalität (1) Fairness (9) Temperament (13)

Profil

Trainerstil Demokratisch
Lizenz Kontinentale C
Entschlossenheit 15
Menschenführung 10
Motivation 8
Disziplin 11
Arbeitszufriedenheit
100%
Ermüdung
0%
Rolle Scout
Gehalt 85.1K p/W
Vertrag 14.03.2029

Leistung

Verhalten Gut
Trainingseffektivität
50%
Spielerentwicklung
70%
Verletzungsprävention
60%
Taktische Umsetzung
40%

Letzte Ereignisse

Spieler begutachtet jetzt
Nahm an einer Scouting-Besprechung teil jetzt
Empfahl ein Transferziel jetzt
Empfahl ein Transferziel 7T her
Spieler begutachtet 7T her
Spieler begutachtet 7T her
Spieler begutachtet 7T her
Spieler begutachtet 7T her

Aktuell beobachtet

182
Spieler Verein Status Fähigkeit Vertrauen Beobachtet Zuletzt beobachtet Letzte Stimme
Christos Mouzakitis Hull City Aktiv 142 / 135 40% 5 21.02.2028 -
Pape Diong Westerlo Aktiv 117 / 134 40% 5 21.02.2028 -
Saman Rezaeian Gostaresh Foulad Aktiv 118 / 122 40% 3 21.02.2028 -
Gopolang Taunyane CR Belouizdad Aktiv 108 / 106 40% 1 19.02.2028 -
Zane Albarus Cambridge United Aktiv 100 / 115 40% 1 19.02.2028 -
Jan Bürger Gillingham Aktiv 116 / 126 40% 1 19.02.2028 -
Buba Sangaré Elche Aktiv 132 / 134 40% 2 18.02.2028 -
Salvador Blopá Casa Pia Aktiv 114 / 130 40% 2 18.02.2028 -
Noahkai Banks Hamburger SV Aktiv 143 / 148 40% 1 18.02.2028 -
Trey Nyoni Rotherham United Aktiv 148 / 138 40% 5 17.02.2028 -
Jorge Salinas Racing Santander Aktiv 127 / 133 40% 4 17.02.2028 -
Jorthy Mokio ADO Den Haag Aktiv 137 / 140 40% 2 15.02.2028 -
Majid Rezaeian Rah Ahan Aktiv 100 / 118 40% 2 15.02.2028 -
Ismail Al Suwaidi Al Fujairah Aktiv 116 / 136 40% 1 15.02.2028 -
Esquerdinha Shrewsbury Town Aktiv 127 / 132 40% 4 10.02.2028 -
Khalis Merah Toulouse FC Aktiv 129 / 144 40% 3 10.02.2028 -
Rodrigo Garro Corinthians Aktiv 149 / 147 40% 2 09.02.2028 -
Patrik Wålemark Lech Aktiv 141 / 130 40% 2 09.02.2028 -
Jesús Ricardo Angulo Toluca Aktiv 129 / 145 40% 1 09.02.2028 -
Lucas Assadi AIK Aktiv 129 / 126 40% 2 08.02.2028 -
Arnaut Danjuma Valencia Aktiv 140 / 135 40% 1 08.02.2028 -
Christian Krasnodar Aktiv 149 / 134 40% 2 07.02.2028 -
Ernie Weaver AFC Wimbledon Aktiv 114 / 126 40% 4 07.02.2028 -
Brooke Norton-Cuffy Inter Miami CF Aktiv 134 / 137 40% 1 07.02.2028 -
Semih Kılıçsoy Besiktas Aktiv 138 / 130 40% 1 07.02.2028 -
Pablo Solari Galatasaray Aktiv 143 / 131 40% 1 05.02.2028 -
Sorba Thomas Stoke City Aktiv 147 / 127 40% 1 05.02.2028 -
Moustapha Sémbène Hajer Aktiv 104 / 111 40% 1 04.02.2028 -
Nhoa Sangui Chamois Niortais Aktiv 121 / 132 40% 1 04.02.2028 -
Amath N'Diaye Valladolid Aktiv 128 / 128 40% 1 03.02.2028 -
Jesús Rodríguez Como Aktiv 143 / 155 40% 1 03.02.2028 -
Kauã Moraes Cruzeiro Aktiv 134 / 139 40% 6 02.02.2028 -
Ronan Kpakio Cardiff City Aktiv 133 / 136 40% 5 02.02.2028 -
Marcelo Allende Mamelodi Sundowns Aktiv 143 / 138 40% 1 01.02.2028 -
Brais Méndez Columbus Crew Aktiv 149 / 143 40% 1 01.02.2028 -
Avery Appiah Ajax Aktiv 127 / 132 40% 3 30.01.2028 -
Jofre Torrents Ajax Aktiv 137 / 139 40% 6 30.01.2028 -
Izan Merino Málaga Aktiv 122 / 132 40% 3 29.01.2028 -
Daniel Banjaqui Benfica Aktiv 124 / 129 40% 1 29.01.2028 -
Keagan Phiri Platinum Stars Aktiv 108 / 105 40% 1 24.01.2028 -
Luis Otávio Colorado Rapids Aktiv 108 / 124 40% 3 19.01.2028 -
Giovanni Leoni Bradford City Aktiv 145 / 144 40% 2 19.01.2028 -
Juan Morán Godoy Cruz Aktiv 98 / 108 40% 3 17.01.2028 -
Juan Galeano Konyaspor Aktiv 103 / 117 69% 1 17.01.2028 Befürworten
Louis Leroux FC Nantes Aktiv 143 / 135 40% 1 17.01.2028 -
Jaydee Canvot AJ Auxerre Aktiv 148 / 139 40% 3 30.12.2027 -
João Simões Sporting CP Aktiv 144 / 136 40% 2 29.12.2027 -
Sebastián Ramírez Jaguares Aktiv 101 / 122 40% 2 28.12.2027 -
Mikkel Hope Haugesund Aktiv 97 / 99 40% 2 23.12.2027 -
Dmitry Pestryakov Dinamo Moscow Aktiv 113 / 120 40% 2 21.12.2027 -
Caleb Yirenkyi Coventry City Aktiv 153 / 138 40% 5 20.12.2027 -
Nejc Viher NK Maribor Aktiv 117 / 130 40% 2 20.12.2027 -
Josh Nichols Tranmere Rovers Aktiv 123 / 120 40% 5 16.12.2027 -
Tobias Moi Bodo/Glimt Aktiv 113 / 107 40% 1 15.12.2027 -
Celías Ingenthron Vélez Aktiv 105 / 132 40% 3 14.12.2027 -
Fillip Jenssen Riise Stabaek Aktiv 95 / 105 40% 3 09.12.2027 -
Gonçalo Oliveira Benfica Aktiv 107 / 119 40% 1 09.12.2027 -
Edvard Pettersen Sandefjord Aktiv 98 / 104 40% 3 05.12.2027 -
Olivier Mambwa Young Boys Aktiv 98 / 125 40% 3 04.12.2027 -
Taylan Bulut Umraniyespor Aktiv 123 / 126 40% 2 03.12.2027 -
Joe Johnson Barnet Aktiv 99 / 107 40% 1 03.12.2027 -
Juan Giménez Celta Aktiv 121 / 129 40% 1 01.12.2027 -
Alpha Touré FC Metz Aktiv 118 / 124 40% 1 30.11.2027 -
Hervin Goyes Deportivo Pasto Aktiv 105 / 107 40% 3 29.11.2027 -
Matteo Pérez Vinlöf Dinamo Zagreb Aktiv 135 / 133 40% 4 20.11.2027 -
Agustín Obregón River Plate Aktiv 114 / 128 40% 2 11.11.2027 -
Felipe Obradovich Ferro Carril Oeste Aktiv 108 / 124 40% 2 08.11.2027 -
Julián Bazán Philadelphia Union Aktiv 105 / 114 40% 1 08.11.2027 -
Saba Kharebashvili LOSC Lille Aktiv 129 / 134 40% 3 07.11.2027 -
David Valencia Alianza Petrolera Aktiv 138 / 121 40% 2 06.11.2027 -
Malick Yalcouyé Brighton Aktiv 134 / 129 40% 1 30.10.2027 -
Dylan Gorosito Villarreal Aktiv 123 / 121 40% 1 30.10.2027 -
Tiago Parente Benfica Aktiv 117 / 119 40% 1 23.10.2027 -
Jens Hjertø-Dahl Hull City Aktiv 134 / 123 40% 2 22.10.2027 -
Martim Fernandes Porto Aktiv 131 / 144 40% 1 22.10.2027 -
Matthew Litherland Rotherham United Aktiv 110 / 127 40% 1 20.10.2027 -
Mauro Carrizo Atlético Tucumán Aktiv 111 / 113 40% 1 19.10.2027 -
Dayann Methalie Aston Villa Aktiv 135 / 142 40% 1 12.10.2027 -
Yannick Geiger IFK Norrkoping Aktiv 99 / 112 40% 1 08.10.2027 -
Pedro Soma San Diego Football Club Aktiv 103 / 117 40% 1 08.10.2027 -
Frankie Westfield Philadelphia Union Aktiv 96 / 117 40% 1 07.10.2027 -
Martín Jiménez Audax Italiano Aktiv 91 / 96 40% 1 06.10.2027 -
Brandon Powell Wigan Athletic Aktiv 106 / 116 40% 1 05.10.2027 -
Martin Georgiev Aris Thessaloniki Aktiv 106 / 116 40% 1 23.08.2027 -
Romuald Sawadogo Hapoel Raanana Aktiv 91 / 101 40% 1 23.08.2027 -
Dejan Joveljić Seattle Sounders Aktiv 122 / 137 40% 1 16.08.2027 -
Hany Mukhtar Spezia Aktiv 141 / 143 40% 1 16.08.2027 -
James Trafford Leeds United Aktiv 157 / 144 40% 1 26.07.2027 -
Michael Cooper Sheffield United Aktiv 124 / 144 40% 1 26.07.2027 -
Dean Henderson Crystal Palace Aktiv 145 / 144 40% 1 26.07.2027 -
Jack Rudoni Coventry City Aktiv 137 / 133 40% 1 31.05.2027 -
Sam Bell Bristol City Aktiv 124 / 113 40% 2 30.05.2027 -
Callum Brittain Middlesbrough Aktiv 121 / 137 40% 1 30.05.2027 -
Derry Murkin Derby County Aktiv 140 / 119 40% 1 30.05.2027 -
Mathias Jørgensen Blackburn Rovers Aktiv 129 / 110 40% 1 30.05.2027 -
Noah Sadiki Sunderland Aktiv 150 / 156 40% 3 28.05.2027 -
Christopher Opéri Basaksehir Aktiv 124 / 132 40% 1 28.05.2027 -
Mateo Pellegrino Fiorentina Aktiv 143 / 147 40% 3 27.05.2027 -
Zakaria Aboukhlal Torino Aktiv 140 / 142 40% 1 26.05.2027 -
Harry Leonard Peterborough United Aktiv 105 / 105 40% 1 26.05.2027 -
Nicolas Madsen Queens Park Rangers Aktiv 135 / 119 40% 2 25.05.2027 -
Welington Southampton Aktiv 128 / 123 40% 4 23.05.2027 -
Luke Shaw Manchester United Aktiv 163 / 142 40% 1 23.05.2027 -
Lewis Ferguson Bologna Aktiv 132 / 139 40% 3 19.05.2027 -
Callum Doyle Wrexham Aktiv 135 / 135 40% 1 19.05.2027 -
Florentino Luís Ipswich Town Aktiv 147 / 143 40% 3 18.05.2027 -
Will Lankshear Middlesbrough Aktiv 133 / 126 40% 2 17.05.2027 -
Yousef Salech Cardiff City Aktiv 121 / 116 40% 6 17.05.2027 -
Dom Ballard Leyton Orient Aktiv 111 / 114 40% 3 16.05.2027 -
Ilyas Ansah Hull City Aktiv 136 / 128 40% 2 16.05.2027 -
Ahmed Kutucu Konyaspor Aktiv 127 / 115 40% 2 16.05.2027 -
Tom Cannon Sheffield United Aktiv 129 / 133 40% 4 10.05.2027 -
Dávid Strelec Middlesbrough Aktiv 143 / 141 40% 2 10.05.2027 -
Tommy Conway Middlesbrough Aktiv 138 / 135 40% 3 10.05.2027 -
Nicolò Zaniolo Udinese Aktiv 154 / 148 40% 3 09.05.2027 -
Bojan Radulović Huddersfield Town Aktiv 114 / 117 40% 1 09.05.2027 -
Igor Burnley Aktiv 139 / 142 40% 3 07.05.2027 -
Nathan Collins Brentford Aktiv 155 / 140 40% 1 07.05.2027 -
Pedro Porro Tottenham Aktiv 147 / 156 40% 1 06.05.2027 -
Toby Collyer West Bromwich Albion Aktiv 135 / 137 40% 1 06.05.2027 -
Niall Ennis Blackpool Aktiv 101 / 122 40% 3 05.05.2027 -
Zeki Amdouni Burnley Aktiv 140 / 136 40% 2 05.05.2027 -
Pablo Felipe West Ham United Aktiv 125 / 142 40% 2 04.05.2027 -
Jack Hinshelwood Brighton Aktiv 156 / 139 40% 1 30.04.2027 -
Shea Charles Southampton Aktiv 135 / 138 40% 1 30.04.2027 -
Kyle Walker-Peters West Ham United Aktiv 127 / 142 40% 1 28.04.2027 -
Orkun Kökçü Besiktas Aktiv 146 / 145 40% 4 26.04.2027 -
Leon Goretzka Aston Villa Aktiv 158 / 151 40% 2 26.04.2027 -
Luke McNally Bristol City Aktiv 119 / 125 40% 1 26.04.2027 -
Anel Ahmedhodžić Burnley Aktiv 130 / 146 40% 2 24.04.2027 -
Nordi Mukiele Sunderland Aktiv 149 / 147 40% 1 24.04.2027 -
Tiago Djaló Besiktas Aktiv 140 / 129 40% 2 23.04.2027 -
Soungoutou Magassa West Ham United Aktiv 136 / 137 40% 1 23.04.2027 -
Alfie Doughty Millwall Aktiv 127 / 127 40% 1 19.04.2027 -
Paik Seung-Ho Birmingham Aktiv 130 / 120 40% 1 19.04.2027 -
Luis Vázquez Birmingham Aktiv 140 / 133 40% 2 18.04.2027 -
Wilson Isidor Sunderland Aktiv 145 / 135 40% 2 18.04.2027 -
Amir Murillo Besiktas Aktiv 129 / 139 40% 1 18.04.2027 -
Alessio Romagnoli Lazio Aktiv 152 / 141 40% 1 17.04.2027 -
Nuno Tavares Lazio Aktiv 144 / 150 40% 1 17.04.2027 -
Max Bird Birmingham Aktiv 127 / 123 40% 2 14.04.2027 -
Christian Saydee Wigan Athletic Aktiv 120 / 121 40% 1 14.04.2027 -
Aune Heggebø West Bromwich Albion Aktiv 118 / 134 40% 1 14.04.2027 -
Ronnie Edwards Queens Park Rangers Aktiv 121 / 132 40% 1 14.04.2027 -
Dwight McNeil Crystal Palace Aktiv 146 / 137 40% 1 12.04.2027 -
Harry Clarke Preston Aktiv 129 / 130 40% 2 06.04.2027 -
Aidan Morris Middlesbrough Aktiv 127 / 135 40% 2 05.04.2027 -
Japhet Tanganga Sheffield United Aktiv 137 / 136 40% 1 05.04.2027 -
Ethan Galbraith Swansea City Aktiv 132 / 140 40% 1 04.04.2027 -
Morgan Whittaker Middlesbrough Aktiv 129 / 128 40% 1 02.04.2027 -
Azor Matusiwa Ipswich Town Aktiv 128 / 127 40% 1 02.04.2027 -
Andrea Pinamonti Lazio Aktiv 149 / 138 40% 2 31.03.2027 -
Gabriel Gudmundsson Leeds United Aktiv 154 / 143 40% 1 31.03.2027 -
Tim Jabol-Folcarelli Kayserispor Aktiv 139 / 133 40% 1 29.03.2027 -
Jordan Lotomba Bloemfontein Celtic Aktiv 128 / 127 40% 1 29.03.2027 -
Leif Davis Ipswich Town Aktiv 131 / 145 40% 1 28.03.2027 -
Edoardo Bove Watford Aktiv 136 / 138 40% 1 28.03.2027 -
Carlos Augusto Inter Aktiv 151 / 140 40% 1 27.03.2027 -
Lucas Da Cunha Como Aktiv 149 / 149 40% 1 26.03.2027 -
Milan van Ewijk Mansfield Town Aktiv 127 / 128 40% 1 25.03.2027 -
Dara O'Shea Ipswich Town Aktiv 128 / 136 40% 1 24.03.2027 -
Tyreece Campbell Charlton Athletic Aktiv 117 / 111 40% 1 20.03.2027 -
Tamerlan Musaev CSKA Moscow Aktiv 132 / 127 40% 1 16.03.2027 -
Andri Guðjohnsen Blackburn Rovers Aktiv 126 / 131 40% 2 11.03.2027 -
Deniz Gül Galatasaray Aktiv 127 / 138 40% 1 11.03.2027 -
Brian Brobbey Sunderland Aktiv 144 / 140 40% 1 09.03.2027 -
Bradley Fink Wycombe Wanderers Aktiv 95 / 120 40% 2 08.03.2027 -
Mandla Mahlangu Ajax Cape Town Aktiv 115 / 107 40% 1 08.03.2027 -
Tyrese Campbell Sheffield United Aktiv 122 / 127 40% 3 05.03.2027 -
Etiosa Ighodaro Kaizer Chiefs Aktiv 122 / 118 40% 1 05.03.2027 -
Richard Koné Queens Park Rangers Aktiv 124 / 132 40% 1 26.02.2027 -
Noah Okafor Leeds United Aktiv 136 / 131 40% 1 20.02.2027 -
Danyil Alefirenko Chornomorets Aktiv 100 / 111 40% 1 18.02.2027 -
Cédric Don Maccabi Haifa Aktiv 134 / 136 40% 1 12.02.2027 -
Lorent Tolaj Plymouth Argyle Aktiv 133 / 109 40% 1 10.02.2027 -
Jens Odgaard Bologna Aktiv 147 / 140 40% 1 06.02.2027 -
Abu Kamara Portsmouth Aktiv 120 / 130 40% 1 06.02.2027 -
Aleksandar Pešić Fatih Karagumruk Aktiv 108 / 111 69% 1 01.01.2027 Befürworten
Santiago Sosa Yung Sevilla Aktiv 126 / 119 40% 1 31.12.2026 -
Arjan Malić Sturm Graz Aktiv 109 / 133 40% 1 31.12.2026 -
Lautaro Giannetti Antalyaspor Aktiv 112 / 120 65% 1 24.08.2026 Befürworten
Jason Steele Brighton Aktiv 148 / 128 40% 1 02.08.2026 -